Change the Weather History Date:

Tuesday, February 26, 2013

  Actual Average Record
Temperature  
Mean Temperature 40 °F -  
Max Temperature 44 °F 43 °F 60 °F (1992)
Min Temperature 37 °F 32 °F 11 °F (1972)
Degree Days  
Heating Degree Days 24    
Moisture  
Dew Point 33 °F    
Average Humidity 77    
Maximum Humidity 93    
Minimum Humidity 60    
Precipitation  
Precipitation 0.14 in - - ()
Sea Level Pressure  
Sea Level Pressure 29.55 in    
Wind  
Wind Speed 16 mph (ESE)    
Max Wind Speed 26 mph    
Max Gust Speed 34 mph    
Visibility 10 miles    
Events Rain    
Averages and records for this station are not official NWS values.
T = Trace of Precipitation, MM = Missing Value Source: NWS Daily Summary

Daily Weather History Graph

Daily Weather History Graph

Search for Another Location

Airport or City:

Trip Planner

Search our weather history database for the weather conditions in past years. The results will help you decide how hot, cold, wet, or windy it might be!

Date:

Astronomy

Feb. 26, 2013 Rise Set
Actual Time 7:01 AM AKST 5:28 PM AKST
Civil Twilight 6:22 AM AKST 6:07 PM AKST
Nautical Twilight 5:38 AM AKST 6:51 PM AKST
Astronomical Twilight 4:53 AM AKST 7:35 PM AKST
Moon 7:21 PM AKST (2/26) 6:46 AM AKST (2/26)
Length of Visible Light 11h 44m
Length of Day
10h 27m
Full, 99% of the Moon is Illuminated
Feb 26
Full
Mar 4
Last Quarter
Mar 11
New
Mar 19
First Quarter
Mar 27
Full

Hourly Weather History & Observations

Time (AKST) Temp. Windchill Dew Point Humidity Pressure Visibility Wind Dir Wind Speed Gust Speed Precip Events Conditions
12:53 AM 39.9 °F 32.1 °F 30.9 °F 70% 29.65 in 10.0 mi ESE 13.8 mph - N/A   Overcast
1:53 AM 39.9 °F 30.8 °F 28.9 °F 65% 29.62 in 10.0 mi SE 18.4 mph 26.5 mph N/A   Mostly Cloudy
3:53 AM 41.0 °F 30.9 °F 28.9 °F 62% 29.55 in 10.0 mi ESE 24.2 mph 32.2 mph N/A   Overcast
4:53 AM 42.1 °F 31.9 °F 28.9 °F 60% 29.53 in 10.0 mi East 26.5 mph 34.5 mph N/A   Overcast
5:53 AM 41.0 °F 32.2 °F 28.9 °F 62% 29.52 in 10.0 mi ESE 18.4 mph 27.6 mph N/A   Overcast
6:53 AM 41.0 °F 32.8 °F 30.0 °F 65% 29.51 in 10.0 mi ESE 16.1 mph - N/A   Mostly Cloudy
7:53 AM 41.0 °F 32.5 °F 30.0 °F 65% 29.50 in 10.0 mi SE 17.3 mph 26.5 mph N/A   Overcast
8:53 AM 39.9 °F 32.9 °F 30.9 °F 70% 29.52 in 10.0 mi ESE 11.5 mph - N/A   Overcast
9:53 AM 42.1 °F 34.9 °F 32.0 °F 67% 29.52 in 10.0 mi SE 13.8 mph - N/A   Overcast
10:53 AM 44.1 °F 37.7 °F 30.9 °F 60% 29.52 in 10.0 mi ESE 12.7 mph 18.4 mph N/A   Mostly Cloudy
11:53 AM 44.1 °F 37.7 °F 32.0 °F 63% 29.53 in 10.0 mi ESE 12.7 mph - N/A   Overcast
12:53 PM 44.1 °F 37.1 °F 32.0 °F 63% 29.53 in 10.0 mi ESE 15.0 mph - N/A   Mostly Cloudy
1:53 PM 43.0 °F 37.2 °F 33.1 °F 68% 29.54 in 10.0 mi ESE 10.4 mph - N/A   Overcast
2:53 PM 42.1 °F 33.1 °F 33.1 °F 70% 29.54 in 10.0 mi SE 20.7 mph 25.3 mph N/A   Mostly Cloudy
3:53 PM 41.0 °F 32.5 °F 34.0 °F 76% 29.55 in 10.0 mi ESE 17.3 mph 25.3 mph 0.00 in Rain Light Rain
4:05 PM 39.2 °F 29.6 °F 33.8 °F 81% 29.56 in 10.0 mi ESE 19.6 mph 26.5 mph 0.00 in Rain Light Rain
4:15 PM 37.4 °F 27.8 °F 33.8 °F 87% 29.56 in 6.0 mi ESE 17.3 mph - 0.01 in Rain Rain
4:45 PM 37.4 °F 30.3 °F 35.6 °F 93% 29.55 in 10.0 mi ESE 10.4 mph - 0.02 in Rain Light Rain
4:53 PM 37.9 °F 30.9 °F 35.1 °F 89% 29.55 in 10.0 mi ESE 10.4 mph - 0.02 in   Overcast
5:36 PM 37.4 °F 28.9 °F 33.8 °F 87% 29.56 in 10.0 mi ESE 13.8 mph 23.0 mph 0.01 in Rain Light Rain
5:48 PM 37.4 °F 28.2 °F 35.6 °F 93% 29.56 in 10.0 mi East 16.1 mph 24.2 mph 0.01 in Rain Light Rain
5:53 PM 37.9 °F 30.0 °F 34.0 °F 86% 29.56 in 10.0 mi ESE 12.7 mph 24.2 mph 0.01 in Rain Light Rain
6:01 PM 37.4 °F 29.3 °F 33.8 °F 87% 29.55 in 10.0 mi ESE 12.7 mph - 0.00 in Rain Light Rain
6:53 PM 39.0 °F 31.8 °F 35.1 °F 86% 29.55 in 10.0 mi SE 11.5 mph - 0.00 in Rain Light Rain
7:53 PM 39.0 °F 31.0 °F 34.0 °F 82% 29.55 in 10.0 mi SE 13.8 mph - 0.01 in Rain Light Rain
8:09 PM 37.4 °F 28.9 °F 35.6 °F 93% 29.55 in 10.0 mi ESE 13.8 mph - 0.00 in Rain Light Rain
8:40 PM 37.4 °F 27.5 °F 35.6 °F 93% 29.55 in 10.0 mi ESE 18.4 mph 24.2 mph 0.02 in Rain Light Rain
8:53 PM 37.9 °F 29.2 °F 35.1 °F 89% 29.55 in 10.0 mi ESE 15.0 mph 24.2 mph 0.03 in Rain Light Rain
9:53 PM 39.0 °F 31.0 °F 35.1 °F 86% 29.56 in 10.0 mi SE 13.8 mph - 0.00 in   Overcast
10:53 PM 39.0 °F 29.6 °F 35.1 °F 86% 29.57 in 10.0 mi ESE 18.4 mph 24.2 mph 0.00 in Rain Light Rain
11:12 PM 39.2 °F 31.2 °F 35.6 °F 87% 29.57 in 10.0 mi ESE 13.8 mph - 0.00 in Rain Light Rain
11:53 PM 37.0 °F 28.1 °F 34.0 °F 89% 29.58 in 7.0 mi ESE 15.0 mph 25.3 mph 0.07 in Rain Light Rain